Cloud_Cover
64 68 92 92 88 88 80 80 68 48 44 44 32 48 76 68 76 76 80 92 80 80 88 80 88 92 92 92 44 32 44 64 64 64 76 92 92 92 92 92 80 88 92 92 92 92 92 92 88 92 92 92 92 92 92 92 92 92 92 92 88 88 88 80 68 68 80 92 92
56 44 48 80 80 80 88 92 68 56 44 36 56 64 68 76 68 80 88 80 76 80 92 92 92 92 88 64 36 24 32 44 48 68 88 92 92 92 92 92 92 88 88 92 92 92 92 92 92 92 92 92 92 92 92 92 92 92 92 92 88 88 80 64 64 76 88 92 92
44 36 36 80 88 88 88 92 68 44 36 36 68 80 88 92 92 88 80 80 76 88 92 76 80 68 56 36 36 24 20 24 56 80 92 92 92 92 92 92 92 88 80 68 80 92 92 80 92 92 92 92 92 92 92 88 92 92 92 92 92 76 56 56 56 68 80 92 92
48 36 48 88 88 88 88 80 64 44 36 48 68 76 76 88 92 92 92 88 80 80 80 48 80 88 76 44 44 44 44 32 56 80 92 92 92 92 92 92 92 92 92 80 88 88 88 92 92 92 88 76 68 76 80 92 88 92 92 92 92 80 64 36 48 64 76 76 76
24 44 80 92 80 88 88 64 48 36 36 56 68 88 92 92 92 92 92 92 68 68 68 36 44 56 56 32 36 44 48 44 56 68 88 92 92 92 92 92 92 92 92 92 68 68 80 92 92 92 88 68 68 68 76 76 80 88 92 92 92 92 88 76 64 64 68 76 76
88 76 68 80 68 56 44 24 24 24 36 68 68 76 88 92 92 92 92 92 88 92 80 32 20 12 12 20 20 32 44 48 44 56 68 48 80 92 92 92 92 92 92 92 80 68 68 92 92 92 92 80 76 88 92 92 92 92 92 92 92 92 92 88 88 88 92 92 80
80 80 68 64 44 32 24 20 20 20 32 56 56 64 76 92 92 92 92 92 92 92 76 8 12 12 12 20 20 20 20 24 20 32 48 56 56 76 92 92 92 92 92 92 92 80 80 92 92 92 92 92 92 92 92 92 92 92 92 92 92 92 92 92 88 92 92 92 92
92 80 64 48 32 20 20 12 12 12 24 68 56 64 76 76 88 92 92 92 92 76 44 8 12 12 20 20 20 20 20 20 20 32 48 68 64 76 92 92 88 80 80 92 92 80 76 92 92 92 92 92 92 92 88 88 92 92 92 92 92 92 88 80 80 88 92 92 92
68 48 32 24 20 20 20 20 20 20 24 56 68 76 80 92 80 88 92 92 56 36 24 8 12 20 20 24 24 24 24 24 24 24 32 56 80 92 92 92 92 92 92 88 92 92 92 92 92 92 92 92 92 92 92 92 92 92 92 92 92 92 92 92 92 92 92 92 92
56 48 44 24 24 24 32 36 44 48 64 68 80 92 92 92 92 92 92 76 48 44 36 12 20 24 32 32 32 24 24 24 24 20 24 32 56 80 92 92 92 92 92 92 92 92 92 92 92 92 92 92 92 92 92 92 92 92 92 92 92 92 92 92 92 92 92 92 92
56 36 20 12 24 44 56 56 44 56 80 92 92 92 92 92 92 92 92 92 88 80 76 48 36 32 32 36 36 36 24 24 20 20 12 12 32 64 92 92 92 92 92 92 92 92 92 92 92 92 92 92 92 92 92 92 92 92 92 92 92 92 92 92 92 92 92 92 92
24 20 20 32 48 56 56 48 48 64 80 88 80 88 92 92 92 92 92 88 88 92 92 88 48 36 36 44 44 44 36 24 20 12 8 8 12 48 80 88 92 92 92 92 92 92 92 92 92 92 92 92 80 88 92 92 92 92 92 92 92 92 92 92 92 92 92 92 92
32 32 44 76 64 56 48 48 64 68 76 68 88 92 92 92 92 92 88 76 68 80 92 88 56 44 44 48 48 56 56 32 20 12 8 8 8 32 64 76 92 92 92 92 92 92 92 92 92 92 92 92 92 92 92 92 92 92 92 92 92 92 92 92 92 92 92 92 92
48 68 88 92 80 76 64 56 76 80 76 48 88 92 92 92 92 92 88 80 76 76 76 68 56 48 44 44 44 64 68 48 32 20 12 12 8 24 48 64 88 92 92 92 92 88 88 92 92 92 92 92 92 92 92 88 92 92 92 92 92 92 92 92 92 92 92 92 92
64 80 92 92 92 92 80 76 80 56 48 80 92 92 92 92 92 92 88 88 88 80 68 56 48 48 44 36 36 44 56 68 44 32 24 20 12 24 48 68 88 92 92 92 88 76 64 68 88 92 92 92 92 92 92 92 92 92 92 92 92 92 92 92 92 92 92 92 92
64 80 92 92 92 88 80 92 56 44 64 92 92 92 92 92 92 92 92 92 92 92 80 64 64 56 44 36 36 36 48 64 56 48 44 44 48 64 80 92 92 92 92 92 92 88 76 56 80 92 92 92 92 92 92 88 92 92 88 92 92 92 92 92 92 92 92 92 92
68 88 92 92 92 92 88 88 64 76 92 92 92 92 92 92 92 92 92 92 92 92 92 80 76 64 56 44 44 44 48 56 68 68 64 64 88 92 92 92 92 92 92 92 92 92 92 92 92 92 92 92 92 92 92 88 92 92 92 80 88 92 92 92 92 92 92 92 92
92 92 92 92 88 92 92 88 92 92 92 92 92 92 92 92 88 88 92 92 92 92 92 92 80 68 64 48 48 56 56 56 64 64 48 32 68 80 76 68 68 76 88 92 92 92 92 92 92 92 92 92 92 92 92 92 92 92 88 80 80 80 80 92 92 92 92 92 92
92 92 88 92 88 92 92 92 92 92 92 92 92 92 92 92 92 92 92 88 88 92 92 92 80 68 64 56 56 56 56 56 56 56 44 12 68 68 56 48 48 56 76 92 92 92 92 92 92 92 92 92 92 92 92 92 92 92 92 92 88 80 76 80 88 92 92 92 92
80 88 92 92 92 92 92 92 92 92 92 92 92 92 92 92 92 92 88 76 88 88 88 80 68 64 56 56 56 56 48 56 48 48 48 64 88 88 80 80 80 80 88 92 92 92 92 92 92 92 92 92 88 80 80 92 88 92 92 92 92 88 80 76 76 80 88 92 92
80 92 92 92 92 92 92 92 92 92 92 92 92 92 92 92 92 88 80 68 76 68 64 56 48 48 48 48 56 56 64 64 56 64 80 92 92 92 92 92 92 92 92 92 92 92 92 92 92 92 92 80 80 80 80 88 80 80 80 92 92 92 88 92 88 88 92 88 92
92 92 92 92 92 92 92 92 92 92 92 92 92 92 92 88 92 92 88 80 64 48 44 48 56 56 64 76 80 88 88 88 88 88 92 92 92 92 92 92 88 88 92 92 92 92 92 92 92 92 92 88 88 88 92 92 92 88 80 92 92 92 92 92 92 92 92 92 92
92 92 92 92 92 92 92 92 92 92 92 92 92 92 92 92 92 92 92 92 88 80 80 80 88 88 88 92 92 92 92 92 92 92 92 92 92 92 92 92 80 88 92 92 92 92 92 80 92 92 92 92 92 92 92 92 92 92 92 92 92 92 92 92 92 92 92 92 92
92 92 92 92 92 92 92 92 92 92 88 92 92 92 92 92 92 92 88 68 56 48 48 56 64 68 76 76 92 92 92 88 88 76 56 48 32 36 48 68 80 92 92 92 92 92 92 88 92 92 92 92 92 92 92 92 92 92 92 92 92 92 92 92 92 92 92 92 92
92 92 92 92 92 92 92 92 88 88 92 92 92 80 76 88 88 68 44 20 20 20 20 20 20 20 32 44 48 64 68 68 56 44 36 44 56 64 68 68 68 68 76 80 68 80 88 92 92 92 92 92 92 92 92 92 92 92 92 92 92 92 92 92 92 92 92 92 92
92 92 92 92 92 92 92 80 76 80 92 92 88 68 64 76 56 32 20 32 12 0 8 32 48 68 68 32 68 56 36 48 64 64 48 36 56 76 92 88 68 68 68 48 48 64 76 92 92 92 92 92 92 92 92 92 92 92 92 92 92 92 92 92 92 92 92 92 92
92 92 92 92 80 76 68 68 68 80 88 76 76 68 64 56 64 56 64 88 88 88 88 88 92 88 76 68 80 76 56 56 76 88 92 88 64 68 76 68 88 88 88 80 76 76 88 92 92 92 92 92 92 92 92 92 92 92 92 92 92 92 92 92 92 92 92 92 92
92 80 68 64 64 56 56 48 80 80 64 44 48 68 88 92 88 92 92 92 92 92 92 92 92 92 88 68 88 92 92 92 92 68 44 48 32 48 76 76 76 80 88 88 88 88 92 92 92 92 92 92 92 92 92 92 92 92 92 92 92 92 92 92 92 92 92 92 92
68 56 48 44 32 32 32 32 80 88 76 76 88 92 92 92 92 92 88 68 88 80 76 92 92 92 92 92 92 88 80 92 68 44 24 20 44 76 80 68 80 88 92 92 92 92 92 92 92 92 92 92 92 92 92 92 92 92 92 92 92 92 92 92 92 92 92 92 92
24 24 24 12 12 32 64 92 92 92 92 92 92 92 92 92 92 92 92 92 92 92 92 92 92 92 92 92 92 92 80 48 80 88 88 92 92 92 92 92 92 92 92 92 92 92 92 92 92 92 92 92 92 92 92 92 92 92 92 92 92 92 92 92 92 92 92 92 92
20 24 48 92 92 92 92 92 92 92 92 92 92 92 92 92 92 92 92 92 92 92 92 92 92 92 92 92 92 92 92 92 92 92 88 80 88 92 92 92 92 92 92 92 92 92 92 92 92 92 92 92 92 92 92 92 92 92 92 92 92 92 92 92 92 92 92 92 92
36 64 88 92 92 92 92 92 92 92 92 92 92 92 92 92 92 92 92 92 92 92 92 92 92 92 92 92 92 92 92 92 92 92 88 76 88 92 92 92 92 92 92 92 92 92 92 92 92 92 92 92 92 92 92 92 92 92 92 92 92 92 92 92 92 92 92 92 92
64 68 80 92 92 92 92 92 92 88 80 92 92 92 92 92 92 92 92 92 92 92 92 92 92 92 92 92 92 92 92 92 92 92 92 92 92 92 92 92 92 92 92 92 92 92 92 92 92 92 92 88 92 92 92 92 92 92 92 92 92 92 92 92 92 92 92 92 92
56 76 92 92 92 92 92 92 92 80 76 92 88 88 88 92 88 92 92 92 92 92 92 92 92 92 92 92 92 92 92 92 92 92 92 92 92 92 92 92 92 92 92 92 92 92 92 92 92 92 92 92 92 92 92 92 92 92 92 92 92 92 92 92 92 92 92 92 92
64 80 92 92 92 92 92 92 92 92 88 88 88 88 88 88 88 92 92 92 92 92 92 92 92 92 92 92 92 92 92 92 92 92 92 92 92 92 92 92 92 92 92 92 92 92 92 92 92 92 92 92 92 92 92 92 92 92 92 92 92 92 92 92 92 92 92 92 92
92 92 92 92 92 92 92 92 92 92 92 92 92 92 88 92 92 92 92 92 92 92 88 92 92 92 92 92 92 92 92 92 92 92 92 92 92 92 92 92 92 92 92 92 92 92 92 92 92 92 92 92 92 92 92 92 92 92 92 92 92 92 92 92 92 92 92 92 92
92 92 88 92 92 92 92 92 92 92 92 92 92 92 92 92 92 92 92 92 88 80 80 92 92 92 92 92 92 92 92 92 92 92 92 92 92 92 92 92 92 92 92 92 92 92 92 92 92 92 92 92 92 92 92 92 92 92 92 92 92 92 92 92 92 92 92 92 92
92 88 80 92 92 92 92 92 92 92 92 92 92 92 92 92 92 92 92 92 68 68 80 92 92 92 92 92 92 92 92 92 88 92 92 88 92 92 92 92 92 92 92 92 92 92 92 92 92 92 92 92 92 92 92 92 92 92 92 92 92 92 92 92 92 92 92 92 92
92 92 92 92 92 92 92 88 92 92 92 92 92 92 92 92 92 92 92 92 76 76 80 92 92 92 92 92 88 88 92 92 92 92 92 88 92 92 92 92 92 92 92 92 92 92 92 92 92 92 92 92 92 92 92 92 92 92 92 92 92 92 92 92 92 92 92 92 92
92 92 92 92 92 92 92 92 92 92 92 92 92 92 92 92 92 92 92 92 92 88 88 88 92 92 92 88 88 88 92 92 88 88 88 88 92 92 92 92 92 92 88 92 92 92 92 92 92 92 92 92 92 92 92 92 92 92 92 92 92 92 92 92 92 92 92 92 92
92 92 92 92 92 92 92 92 92 92 92 92 92 92 92 92 92 92 92 92 92 92 88 92 92 92 88 88 88 88 88 88 88 88 88 88 88 92 92 92 92 92 92 88 92 92 92 92 92 92 92 92 92 92 92 92 92 92 92 92 92 92 92 92 92 92 92 92 92